Temp
86 88 89 87 86 86 82 83 76 80 80 82 83 89 90 92 93 93 93 92 90 91 91 87 86 84 85 85 86 86 82 82 80 80 80 79 78 79 79 78 78 78 77 76
80 87 87 84 88 88 87 86 85 86 84 86 92 91 91 92 92 91 92 93 93 90 90 87 85 84 82 84 84 84 79 80 81 80 79 78 79 79 78 78 79 77 76 76
72 83 83 77 85 87 88 89 87 79 86 89 87 89 89 90 91 90 91 92 91 92 87 87 86 85 80 84 83 81 80 81 80 80 79 79 79 78 78 78 77 76 76 76
74 77 65 83 94 93 89 90 92 88 89 87 89 91 93 93 91 91 92 92 92 95 93 90 90 88 85 85 82 81 79 80 80 80 79 78 78 77 77 77 76 74 74 75
71 72 78 83 87 86 76 79 92 91 90 91 92 92 89 93 96 94 94 93 93 96 95 90 89 87 84 83 83 82 80 79 80 80 78 78 77 76 76 75 74 74 75 74
74 67 64 80 88 91 85 71 85 85 87 87 90 80 82 90 94 94 95 95 94 95 95 91 89 89 84 82 81 80 80 80 81 80 79 78 77 76 75 77 74 76 75 75
72 69 76 89 88 88 63 61 81 87 85 85 83 85 90 94 93 95 94 94 94 93 91 87 88 86 81 82 81 83 84 83 81 81 79 80 78 74 72 72 71 71 72 73
74 69 66 89 81 72 78 84 87 87 86 87 89 90 91 91 93 92 92 93 93 90 86 87 86 83 80 79 82 84 83 83 82 80 80 78 78 75 72 71 70 68 69 71
67 61 69 86 82 85 87 83 84 85 87 88 88 88 90 89 89 91 91 91 92 89 85 85 85 86 83 84 86 86 85 82 82 82 80 80 77 73 75 69 67 69 66 69
64 59 59 79 83 84 86 85 87 89 88 89 86 88 88 88 88 89 91 89 90 87 85 83 84 82 82 82 83 83 81 81 80 77 77 75 74 76 67 69 69 70 64 67
74 62 74 78 82 83 85 87 87 88 89 88 88 87 88 88 88 84 86 82 80 77 73 68 68 67 70 75 76 78 79 79 77 78 75 76 60 57 69 57 58 67 64 66
66 72 75 75 82 85 83 83 85 84 85 89 88 87 89 85 85 84 79 81 75 72 70 65 67 71 74 76 78 78 76 78 77 76 68 74 66 62 46 46 44 42 44 52
74 79 78 80 84 86 82 83 85 84 86 84 88 89 87 85 81 74 80 78 75 72 76 72 72 75 75 76 78 77 74 76 78 71 77 75 72 69 64 52 46 45 46 46
82 80 75 79 78 83 83 84 82 85 87 87 87 89 88 85 79 80 79 80 79 78 75 71 75 76 76 77 76 76 76 61 76 77 76 73 71 69 69 65 62 62 48 48
79 81 80 80 80 80 82 82 80 81 83 84 86 85 81 79 77 79 80 81 80 79 78 78 76 74 77 79 76 76 77 77 76 75 69 69 71 69 69 64 63 63 62 51
78 78 78 77 77 78 79 79 78 79 81 82 83 84 82 81 77 81 79 79 76 76 76 76 75 76 77 78 76 76 73 60 66 75 70 70 68 66 66 63 62 62 60 56
72 71 73 73 75 76 76 78 79 79 80 80 80 82 83 82 71 78 71 73 77 77 77 76 76 76 76 76 75 76 70 71 60 71 70 68 67 64 64 64 61 60 58 53
76 76 76 76 74 74 75 77 78 79 79 82 83 82 80 75 74 67 69 66 65 71 75 76 75 75 74 76 75 75 66 68 71 67 64 66 66 65 67 65 65 62 59 55
74 73 74 74 75 74 75 75 77 79 79 80 79 76 75 71 74 72 67 68 67 67 70 73 66 69 72 68 66 75 68 71 69 64 63 59 61 67 67 67 65 65 64 59
72 73 72 73 75 74 73 75 77 78 79 80 80 76 72 72 70 65 61 59 62 67 72 70 70 71 69 67 66 74 70 69 67 66 64 64 65 66 65 58 61 65 65 64
68 70 70 70 71 73 74 75 76 76 78 75 73 70 69 70 70 70 68 68 68 67 70 64 70 69 70 69 69 72 71 70 70 69 66 65 66 66 66 67 65 64 64 63
66 66 66 66 67 70 71 72 65 69 70 71 73 70 68 67 69 69 70 69 70 58 67 69 70 60 68 62 71 73 72 71 70 70 69 67 66 65 66 66 64 64 63 62
63 64 65 65 64 67 69 68 69 69 67 70 68 68 68 70 70 67 64 68 69 63 69 62 57 58 60 68 70 71 71 71 70 70 69 67 66 65 65 65 64 64 62 61
63 60 57 61 58 61 62 63 66 67 67 68 71 71 70 70 68 68 66 59 57 62 69 63 59 57 53 68 69 70 70 70 69 69 69 56 67 66 65 64 62 63 62 57
61 61 60 58 60 59 61 67 67 67 67 69 68 67 70 67 70 70 66 69 56 64 69 52 55 55 64 68 70 70 69 68 68 67 67 67 65 65 65 64 64 62 63 62
60 64 60 62 64 64 64 62 61 64 62 64 64 66 65 65 63 68 65 63 69 64 68 65 65 64 66 67 69 69 68 67 65 66 64 66 66 66 65 64 64 62 62 63
71 60 72 70 72 72 70 66 63 62 64 67 59 67 70 69 68 63 61 70 67 67 67 68 65 63 67 67 68 68 67 67 60 66 66 65 64 65 65 64 64 64 63 62
MSLP
992.98 992.84 992.68 992.76 993.21 993.75 994.30 994.69 995.02 995.29 996.74 997.33 998.52 998.56 998.49 998.52 999.07 999.27 999.41 999.87 1000.51 1001.32 1002.28 1003.59 1004.87 1006.03 1007.05 1008.15 1009.10 1009.81 1010.55 1011.15 1011.69 1012.21 1012.71 1013.09 1013.36 1013.45 1013.59 1013.64 1013.66 1013.67 1013.60 1013.51
993.62 993.20 992.99 992.73 992.41 992.63 993.29 993.92 994.34 994.81 995.35 995.45 996.89 997.90 998.29 998.50 998.82 999.20 999.21 999.68 1000.01 1000.71 1001.55 1002.68 1004.28 1005.55 1006.92 1007.70 1008.68 1009.56 1010.25 1010.63 1011.12 1011.75 1012.14 1012.49 1012.69 1012.79 1012.89 1012.97 1013.10 1013.18 1013.22 1013.10
994.08 993.94 993.48 992.56 992.10 992.03 992.30 992.91 993.76 994.33 995.15 996.10 996.98 997.61 997.93 998.43 998.95 999.25 999.22 999.57 999.98 1000.11 1001.05 1002.19 1003.48 1005.02 1006.67 1007.36 1008.38 1009.25 1010.05 1010.52 1010.78 1011.30 1011.57 1011.83 1011.98 1012.08 1012.30 1012.65 1012.81 1012.84 1012.75 1012.68
994.45 994.24 993.12 992.52 992.02 991.88 992.16 993.02 993.28 993.75 994.78 995.99 996.48 997.48 997.60 997.82 998.46 998.48 999.30 999.58 999.70 999.87 1000.62 1001.93 1003.23 1004.63 1005.85 1006.89 1008.00 1008.91 1009.66 1010.06 1010.31 1010.66 1010.98 1011.20 1011.34 1011.56 1011.89 1012.07 1012.22 1012.29 1012.21 1012.07
994.35 993.74 993.27 992.99 992.80 993.05 995.21 994.51 994.07 993.85 994.61 995.41 996.49 997.64 997.71 997.27 997.43 998.56 999.24 999.49 999.71 999.80 1000.37 1001.55 1002.91 1004.23 1005.45 1006.54 1007.59 1008.36 1008.91 1009.29 1009.63 1010.00 1010.31 1010.52 1010.74 1011.12 1011.40 1011.63 1011.72 1011.72 1011.59 1011.51
993.78 994.21 993.28 992.85 993.10 993.87 995.70 995.60 995.98 996.40 995.59 995.93 996.95 997.59 997.94 997.74 998.42 998.98 999.33 999.57 999.76 999.89 1000.38 1001.37 1002.49 1003.83 1005.12 1006.07 1006.95 1007.57 1008.01 1008.39 1008.82 1009.19 1009.61 1009.86 1010.11 1010.61 1010.89 1011.10 1011.39 1011.30 1011.16 1011.12
995.54 995.31 994.20 993.49 994.03 994.65 997.19 998.06 997.56 997.42 997.11 997.30 997.50 998.01 997.96 998.23 998.65 999.05 999.52 999.84 1000.09 1000.27 1000.67 1001.60 1002.57 1003.52 1004.81 1005.59 1006.23 1006.57 1007.17 1007.65 1008.04 1008.40 1008.78 1009.09 1009.49 1010.10 1010.67 1010.94 1011.16 1011.25 1011.19 1011.07
996.55 996.62 995.69 994.86 995.53 996.72 998.05 997.87 998.03 997.51 997.68 997.85 998.47 998.62 998.58 998.49 998.47 998.73 999.34 999.71 1000.32 1000.74 1001.47 1002.15 1002.84 1003.61 1004.43 1005.09 1005.57 1006.23 1006.67 1007.12 1007.51 1007.86 1008.27 1008.69 1009.32 1010.00 1010.57 1010.81 1011.08 1011.01 1011.19 1011.06
999.71 1001.23 1000.03 997.74 997.36 998.28 998.87 998.66 998.76 998.74 998.78 999.12 999.18 998.93 998.75 998.60 998.57 998.61 999.11 999.85 1000.37 1001.00 1001.83 1002.31 1002.91 1003.31 1004.05 1004.66 1005.37 1006.02 1006.47 1006.94 1007.40 1007.73 1008.12 1008.56 1009.10 1009.63 1010.21 1010.65 1010.74 1010.91 1011.15 1010.87
1000.52 1001.47 1001.26 999.98 997.76 998.58 998.84 999.23 999.04 999.09 999.31 999.10 999.03 998.78 998.50 998.66 998.89 998.79 999.12 999.91 1000.75 1001.62 1002.15 1002.85 1003.10 1003.88 1004.74 1004.67 1005.39 1005.97 1006.63 1006.96 1007.31 1007.77 1008.06 1008.58 1008.70 1008.97 1009.46 1010.42 1010.64 1010.82 1010.98 1011.19
999.78 1001.65 1000.87 999.65 999.43 999.24 999.16 999.37 999.40 999.24 999.10 999.01 998.82 998.75 998.63 998.74 999.14 999.49 999.99 1000.45 1001.47 1002.57 1003.83 1005.01 1006.18 1004.76 1004.01 1003.96 1005.91 1006.76 1007.31 1007.29 1007.75 1007.81 1007.93 1008.19 1010.28 1010.48 1009.87 1010.99 1011.65 1011.51 1011.93 1011.84
999.92 999.73 1000.22 1000.33 1000.22 999.74 1000.21 1000.40 1000.08 999.91 999.68 999.38 999.36 999.10 998.70 999.38 999.90 1000.43 1001.36 1002.03 1002.81 1003.82 1004.80 1006.20 1006.76 1006.13 1005.01 1006.05 1006.31 1007.06 1007.29 1007.39 1007.60 1007.91 1007.97 1008.26 1009.70 1010.90 1011.21 1011.80 1012.05 1012.11 1012.38 1012.36
1000.27 1000.72 1000.87 1000.97 1000.57 1000.53 1001.11 1001.10 1000.86 1000.64 1000.14 1000.00 999.66 999.57 999.79 1000.26 1001.01 1001.54 1002.09 1002.64 1003.29 1004.30 1004.70 1005.58 1005.84 1006.86 1005.57 1006.86 1006.90 1007.42 1007.80 1007.60 1007.51 1007.79 1007.59 1008.13 1008.97 1009.81 1010.99 1012.34 1012.39 1012.34 1012.54 1012.69
1000.67 1001.10 1001.33 1001.38 1001.23 1001.40 1001.35 1001.14 1000.99 1000.75 1000.45 1000.16 1000.06 999.86 999.99 1000.61 1001.44 1001.97 1002.69 1003.24 1003.96 1004.16 1004.33 1004.82 1004.98 1006.55 1006.61 1007.06 1007.25 1007.68 1007.57 1007.38 1007.41 1007.52 1007.80 1008.47 1009.21 1009.82 1010.20 1011.03 1011.77 1012.16 1012.65 1012.77
1001.52 1001.65 1001.82 1001.99 1002.05 1001.88 1001.73 1001.62 1001.51 1001.31 1000.93 1000.67 1000.39 1000.16 1000.08 1000.77 1001.21 1001.53 1002.25 1003.11 1003.72 1003.90 1003.98 1004.62 1005.36 1006.35 1006.62 1006.44 1006.96 1007.16 1006.95 1007.08 1007.41 1007.67 1008.37 1008.68 1009.29 1009.83 1010.24 1011.00 1011.36 1011.88 1012.16 1012.83
1002.29 1002.53 1002.70 1002.71 1002.60 1002.52 1002.34 1002.14 1001.96 1001.61 1001.27 1000.94 1000.63 1000.42 1000.40 1000.46 1000.82 1001.81 1001.61 1002.39 1003.44 1003.78 1004.35 1004.99 1005.52 1006.02 1006.19 1006.17 1006.34 1006.91 1007.32 1007.68 1007.87 1007.74 1008.48 1008.98 1009.69 1010.11 1010.55 1011.09 1011.53 1011.84 1012.28 1012.93
1003.42 1003.42 1003.39 1003.32 1003.22 1003.10 1002.91 1002.74 1002.43 1002.05 1001.69 1001.38 1001.13 1000.80 1000.74 1000.67 1001.23 1001.87 1001.92 1001.83 1003.57 1004.06 1003.98 1004.79 1005.46 1006.00 1006.30 1006.44 1006.62 1006.63 1006.78 1007.62 1008.19 1008.55 1008.87 1009.27 1009.81 1010.29 1010.56 1010.60 1011.02 1011.58 1012.45 1013.23
1004.36 1004.39 1004.31 1004.14 1003.95 1003.77 1003.57 1003.22 1002.80 1002.28 1001.84 1001.40 1001.17 1001.04 1000.99 1001.42 1001.56 1002.77 1003.89 1003.71 1005.75 1004.17 1004.56 1005.36 1005.66 1006.09 1006.51 1006.46 1006.68 1006.88 1007.33 1007.87 1008.02 1008.74 1009.24 1009.40 1009.71 1009.99 1009.99 1010.33 1010.56 1011.27 1012.04 1012.90
1005.33 1005.17 1004.96 1004.68 1004.44 1004.16 1003.84 1003.43 1002.98 1002.31 1001.82 1001.47 1001.57 1001.61 1001.91 1002.32 1002.62 1003.38 1004.36 1005.16 1005.11 1005.50 1005.77 1005.98 1006.68 1006.56 1006.70 1007.40 1007.73 1007.03 1007.30 1007.94 1008.41 1008.99 1009.24 1009.52 1009.72 1009.55 1009.51 1009.82 1010.16 1010.55 1010.92 1012.01
1005.68 1005.56 1005.38 1004.80 1004.37 1004.09 1003.66 1003.32 1002.77 1002.12 1001.74 1001.50 1001.44 1001.97 1002.57 1003.06 1003.93 1004.43 1004.59 1005.77 1006.65 1005.30 1005.69 1006.31 1006.78 1006.91 1007.47 1007.75 1007.94 1007.35 1007.92 1008.29 1008.61 1008.97 1009.21 1009.37 1009.42 1009.24 1009.43 1009.98 1010.42 1010.33 1010.56 1011.04
1006.01 1005.44 1005.19 1004.84 1004.25 1003.99 1003.59 1002.97 1002.31 1001.65 1001.31 1001.80 1002.30 1002.87 1003.52 1004.03 1004.53 1004.93 1005.38 1005.57 1006.29 1006.52 1006.38 1006.97 1006.97 1007.30 1007.86 1007.96 1007.85 1007.56 1007.64 1007.79 1008.04 1008.33 1008.58 1008.99 1009.04 1009.26 1009.31 1009.38 1009.88 1010.28 1010.62 1011.00
1006.45 1005.99 1005.53 1005.30 1004.68 1003.86 1003.47 1002.55 1002.27 1001.91 1001.22 1001.91 1003.03 1003.82 1004.29 1004.56 1004.89 1005.30 1005.53 1005.83 1006.36 1006.99 1006.92 1007.14 1007.08 1007.89 1007.74 1008.24 1007.94 1007.21 1007.27 1007.68 1007.91 1008.08 1008.26 1008.47 1008.78 1009.06 1009.15 1009.34 1009.78 1010.16 1010.58 1011.00
1006.73 1006.22 1005.68 1005.45 1005.02 1004.32 1003.19 1003.45 1002.92 1002.56 1002.48 1003.58 1004.22 1004.65 1004.73 1004.72 1004.94 1005.11 1005.62 1005.93 1006.13 1006.94 1006.85 1007.42 1008.04 1008.20 1008.55 1008.48 1008.11 1007.37 1007.22 1007.37 1007.57 1007.88 1008.06 1008.41 1008.83 1009.03 1009.13 1009.36 1009.75 1010.03 1010.50 1011.03
1007.01 1006.75 1006.19 1006.15 1005.70 1005.00 1004.21 1004.34 1004.39 1004.32 1004.48 1004.48 1004.57 1004.84 1004.89 1004.80 1004.93 1005.28 1005.67 1006.21 1006.39 1006.71 1007.00 1008.15 1008.58 1008.69 1008.90 1008.40 1007.94 1007.35 1007.22 1007.39 1007.66 1007.83 1008.09 1008.62 1008.54 1008.87 1009.11 1009.34 1009.81 1010.15 1010.54 1011.18
1007.09 1006.56 1006.32 1005.98 1006.01 1005.90 1005.45 1005.15 1005.02 1004.94 1004.92 1004.79 1004.97 1005.02 1004.96 1005.05 1004.95 1005.41 1005.63 1006.11 1006.90 1006.96 1007.24 1008.46 1008.72 1009.00 1008.90 1008.25 1007.46 1007.31 1007.55 1007.75 1007.91 1008.09 1007.89 1008.02 1008.48 1008.71 1008.92 1009.27 1009.61 1010.13 1010.27 1010.60
1006.49 1006.05 1006.06 1005.83 1005.69 1005.46 1005.47 1005.50 1005.42 1005.29 1005.24 1005.34 1005.46 1005.39 1005.34 1005.45 1005.55 1005.63 1005.86 1006.39 1006.50 1006.99 1007.12 1007.94 1008.33 1008.65 1008.41 1007.89 1007.21 1007.20 1007.55 1007.81 1008.17 1008.30 1008.36 1008.30 1008.15 1008.42 1008.58 1009.00 1009.40 1009.92 1010.21 1010.33
1005.86 1005.63 1005.05 1005.10 1004.91 1004.94 1005.07 1005.33 1005.38 1005.41 1005.16 1005.21 1005.38 1005.29 1005.29 1005.53 1005.72 1005.82 1006.01 1005.93 1006.30 1006.68 1006.74 1006.86 1007.49 1007.67 1007.61 1007.64 1007.20 1007.14 1007.40 1007.54 1007.89 1008.01 1008.07 1008.26 1008.47 1008.35 1008.45 1008.79 1009.10 1009.42 1009.70 1010.10
Wind_Speed
17 20 19 17 23 20 20 19 17 11 7 3 3 8 2 2 3 5 5 12 14 16 14 16 16 15 14 13 9 10 8 7 7 7 7 7 6 6 6 6 5 6 6 7
18 18 18 21 22 23 24 23 23 20 16 22 14 11 7 1 5 7 5 8 8 17 16 18 17 16 13 12 10 6 8 8 7 7 9 8 8 7 7 6 4 5 6 6
15 17 20 21 20 21 17 17 15 13 4 12 11 4 2 2 4 6 7 7 10 10 12 14 18 16 14 12 10 9 7 7 7 7 7 7 8 7 5 3 5 5 6 6
14 17 21 16 19 17 14 15 15 16 17 8 8 2 2 1 5 4 7 8 9 6 9 14 17 17 14 13 10 10 11 10 9 8 8 8 8 7 5 5 5 5 7 6
14 15 14 20 6 8 17 17 9 7 9 4 7 3 6 11 5 0 4 4 6 7 9 14 16 15 14 13 12 11 12 11 10 9 9 9 8 6 5 5 6 6 6 7
4 11 18 14 10 6 17 12 18 20 3 10 6 5 6 9 6 2 3 3 4 5 7 15 15 16 14 13 13 13 13 12 10 10 9 9 7 7 4 2 4 6 8 7
11 12 17 12 7 13 8 11 14 2 8 6 5 8 8 6 5 3 4 4 4 5 7 12 11 14 13 12 11 12 12 11 10 10 8 7 5 3 4 4 3 7 6 7
13 14 17 12 10 10 9 8 7 11 12 8 5 6 8 11 5 8 7 7 7 6 10 10 9 10 12 11 9 7 7 7 7 7 5 4 4 3 4 4 6 8 6 7
4 3 21 12 16 16 7 8 8 6 5 6 7 8 9 8 13 9 9 7 7 8 9 9 9 6 7 5 3 1 2 4 4 3 5 3 3 5 4 7 8 3 4 6
5 7 6 11 15 13 10 5 3 4 4 6 8 10 9 8 11 5 7 9 7 8 9 8 8 10 5 4 3 1 3 3 4 4 2 3 5 6 5 2 1 1 3 3
11 11 12 13 10 7 7 8 9 9 9 11 11 9 9 7 2 7 8 9 13 13 14 17 13 14 17 13 9 6 5 2 3 4 6 6 10 10 5 8 4 4 5 5
10 10 9 11 7 12 10 10 9 11 11 10 11 11 5 8 8 9 11 9 11 11 11 8 7 6 8 3 3 2 4 5 3 3 4 5 8 6 15 10 8 11 7 6
10 10 10 9 9 10 8 10 10 9 8 9 11 9 5 6 10 10 10 8 9 5 9 7 5 2 9 3 2 3 4 4 2 4 3 2 4 4 4 2 4 7 7 6
9 9 9 11 9 10 10 11 12 12 10 11 10 11 6 5 10 8 8 6 8 10 11 10 10 9 6 6 5 5 4 3 3 2 2 4 3 2 3 2 2 2 3 2
7 8 7 11 12 13 13 12 12 11 12 12 11 11 5 11 9 10 11 8 8 7 9 9 10 9 8 7 6 4 2 3 3 2 6 4 3 2 3 2 3 1 3 3
9 10 11 10 9 10 12 12 13 12 12 11 12 11 7 6 13 10 13 11 9 8 8 8 9 9 6 5 6 4 3 4 6 1 6 4 3 3 1 2 1 3 3 4
9 8 10 11 10 12 13 12 13 13 13 11 14 12 9 3 6 7 8 9 9 7 10 7 6 6 5 6 5 3 2 5 1 6 5 4 4 3 4 3 3 4 4 4
11 12 13 13 13 13 14 15 16 15 14 14 12 9 11 6 6 8 9 7 9 5 5 4 3 5 4 4 3 1 5 3 3 3 3 5 4 6 4 3 3 5 5 5
13 15 16 16 15 15 16 16 17 15 14 8 9 10 7 9 7 8 8 4 11 8 6 5 5 3 3 3 4 3 3 3 4 4 4 4 4 3 4 3 4 5 5 7
16 16 19 21 18 17 15 15 17 14 12 11 6 6 6 7 7 7 5 9 6 3 6 8 4 4 4 3 4 1 4 4 4 2 3 2 4 5 3 3 2 4 3 2
18 18 18 20 18 16 16 15 16 13 12 10 9 9 8 6 8 4 4 3 5 3 6 7 5 5 3 4 4 5 5 5 5 5 6 6 6 6 6 4 4 5 2 2
14 16 15 15 18 14 16 9 9 5 10 10 7 7 5 5 3 3 3 2 8 7 5 5 4 10 2 2 6 6 3 3 5 5 5 3 3 4 6 3 4 4 4 3
11 12 10 12 12 12 5 5 10 9 9 7 5 2 4 4 5 5 3 3 7 5 3 7 8 10 4 3 6 9 7 7 6 5 4 2 2 5 4 4 4 4 3 3
8 10 10 9 10 13 11 8 5 5 2 2 3 5 6 5 3 6 6 8 8 8 5 7 6 5 1 6 8 10 5 5 5 5 4 3 3 5 5 4 5 4 4 2
5 4 5 3 0 1 4 3 3 1 3 3 2 4 6 3 3 6 4 5 10 6 7 9 8 3 5 8 9 3 4 4 4 6 6 4 4 7 4 5 4 6 6 6
9 1 3 6 5 2 2 2 2 1 2 2 2 3 4 3 3 2 5 7 8 8 6 9 7 7 7 10 8 4 4 4 4 5 6 7 5 6 5 6 5 5 5 5
8 7 3 3 3 1 0 2 1 4 5 4 5 5 4 3 1 2 1 5 5 7 6 6 8 10 7 9 8 6 6 7 4 5 3 4 6 6 5 5 6 6 7 7
Wind_Direction
233 260 268 239 209 218 238 264 270 248 229 210 175 200 65 54 297 269 245 197 191 191 193 182 173 172 171 172 184 172 164 157 162 160 174 188 213 216 236 250 257 260 266 265
253 254 244 252 265 207 213 225 243 253 244 197 181 155 169 323 313 294 244 257 237 195 193 175 171 173 162 169 160 150 168 176 165 179 180 194 213 215 220 236 269 281 287 275
240 242 256 256 247 251 238 226 236 259 287 107 135 129 44 16 303 293 302 286 284 207 181 170 164 164 171 167 155 164 176 193 177 189 190 201 212 218 213 241 258 272 285 284
234 243 243 250 265 252 246 241 241 215 204 140 93 21 234 126 261 293 280 280 283 219 178 161 160 165 164 162 170 175 186 196 193 193 199 205 211 217 204 216 237 256 260 264
228 231 244 252 313 36 36 325 292 255 208 159 89 332 28 3 188 75 296 294 274 257 184 161 166 163 163 168 179 186 195 198 199 200 207 213 217 215 209 222 247 241 250 260
264 250 255 263 180 88 359 312 11 14 331 174 134 283 91 61 46 12 310 284 245 221 168 153 165 156 164 175 181 193 197 198 196 205 209 217 222 198 177 211 278 279 276 268
220 248 265 289 112 102 170 247 311 325 74 18 359 24 19 132 168 192 232 201 200 202 163 143 160 154 168 180 196 199 193 192 196 203 200 205 182 122 160 234 266 286 299 304
247 250 247 338 92 149 76 92 35 28 32 40 11 340 335 332 245 180 201 177 181 157 130 145 164 153 176 186 201 181 187 193 195 191 193 153 172 158 203 220 246 260 266 263
313 13 329 58 93 100 85 71 48 33 354 324 294 299 303 310 312 188 180 178 182 148 147 161 161 165 148 122 108 57 181 182 198 160 148 183 191 172 227 241 240 263 234 260
140 155 140 313 64 49 51 50 18 33 341 334 327 323 326 307 304 180 181 159 169 166 151 162 125 92 67 117 108 176 240 214 165 149 179 215 222 205 199 306 318 237 283 11
272 56 233 80 71 48 45 31 20 10 357 354 340 323 309 284 244 76 64 67 67 73 71 57 5 58 55 4 45 15 298 221 217 230 207 232 52 347 75 64 36 6 36 360
72 50 62 60 29 59 29 10 13 8 353 350 337 328 331 79 78 87 84 81 87 82 92 85 143 252 114 105 143 222 242 200 233 272 281 145 143 115 49 93 101 98 92 56
72 46 32 351 354 41 14 347 2 336 340 333 326 317 56 107 85 89 103 107 119 113 125 121 124 24 91 121 138 212 239 278 278 230 328 51 83 76 133 103 70 98 100 90
26 12 353 351 346 354 336 332 334 318 317 315 296 302 189 157 142 140 139 174 149 164 145 145 153 167 133 172 187 215 237 185 247 294 101 99 104 77 152 201 171 117 192 214
1 7 2 358 344 337 334 324 313 308 307 303 304 295 257 139 151 171 147 147 178 166 144 153 150 155 198 169 179 213 254 31 149 90 45 53 106 109 58 101 136 86 100 213
356 353 342 315 318 322 321 328 327 324 315 307 296 288 296 185 156 187 154 165 174 180 160 163 172 157 177 203 170 162 140 23 334 186 140 129 115 127 136 77 200 206 73 23
343 326 337 323 318 321 322 319 309 304 305 305 305 310 314 244 103 152 171 147 175 190 152 153 177 149 206 170 198 233 159 128 98 134 126 114 154 191 194 211 176 89 92 75
345 336 326 320 316 311 307 308 307 304 294 290 295 302 297 260 174 129 216 76 37 20 101 100 108 147 190 221 237 311 68 173 184 144 195 190 203 210 197 210 180 159 151 130
325 314 308 303 302 300 296 291 289 295 291 305 286 327 38 54 66 68 39 9 168 149 165 164 113 164 160 59 318 330 126 139 103 78 102 126 247 261 244 209 183 201 176 160
309 302 304 300 291 291 293 287 281 275 275 263 277 131 105 83 92 96 105 114 328 18 135 104 162 193 173 134 288 163 119 147 158 169 208 228 283 284 118 88 327 289 197 232
303 310 306 295 289 286 287 276 272 259 257 90 92 85 79 76 70 93 138 184 128 60 107 133 188 158 189 176 242 238 226 200 205 231 188 211 227 228 282 215 192 225 204 207
319 315 307 303 298 283 285 308 58 329 84 89 104 109 121 137 168 205 29 325 123 174 156 191 179 57 81 186 241 263 237 248 257 254 262 257 283 280 261 235 219 207 209 209
339 333 332 320 308 294 332 33 41 35 66 106 109 204 269 259 219 237 207 86 135 165 351 89 102 96 75 245 280 278 256 249 263 277 272 214 225 258 255 237 226 221 181 199
14 25 13 343 18 357 12 28 38 63 85 318 245 217 217 219 226 108 112 92 122 140 158 134 119 103 328 273 263 264 300 312 295 279 254 23 222 230 244 238 190 245 201 173
285 30 349 328 31 178 249 314 0 261 226 244 59 332 289 64 145 146 143 145 135 186 159 134 144 181 258 271 265 263 273 275 311 336 318 243 186 253 222 236 211 220 221 180
292 111 202 29 26 306 353 37 16 261 254 234 276 296 360 3 92 263 124 154 190 202 195 166 192 205 244 265 283 239 256 270 244 256 273 279 251 241 234 214 212 199 220 241
332 303 338 213 222 340 242 257 213 223 209 217 238 210 196 184 143 328 272 209 197 201 230 179 195 206 227 261 288 297 233 244 229 266 285 233 251 267 230 239 219 235 204 214